040  
ASUS42 KTBW 160612  
RWRFL  
FLORIDA REGIONAL WEATHER ROUNDUP  
NATIONAL WEATHER SERVICE TAMPA BAY RUSKIN FL  
200 AM EDT SUN JUN 16 2024  
 
NOTE: "FAIR" INDICATES FEW OR NO CLOUDS BELOW 12,000 FEET WITH NO  
SIGNIFICANT WEATHER AND/OR S TO VISIBILITY
.  
 
FLZ001>010-012>015-112-114-115-160700-  
PANHANDLE FLORIDA  
 
CITY SKY/WX TMP DP RH WIND PRES REMARKS
 
PENSACOLA CLEAR 80 75 84 SE5 29.94F  
PENSACOLA NAS PTCLDY 85 77 77 SE7 29.94F HX 95  
CRESTVIEW CLEAR 74 72 93 CALM 29.98S  
DUKE FIELD CLEAR 74 71 93 CALM 29.96S  
VALPARAISO CLEAR 82 77 83 CALM 29.95S  
MARY ESTHER CLEAR 83 76 80 SE5 29.94S  
PANAMA CITY CLEAR 76 74 93 CALM 29.96S  
TYNDALL AFB PTCLDY 80 77 92 E3 29.96S  
APALACHICOLA PTCLDY 83 76 79 S8 29.97R  
 
STATION/POSITION SKY/WX TEMP WIND PRES WAVE SWELL
 
AIR SEA DIR/SP/G HT/PER HT/PER  
(F) (DEG/KT/KT) (MB) (FT/S) (FT/S)  
30.1N 87.6W 85 85 110/ 8/ 12 1013.9R  
29.2N 88.2W 84 120/ 14/ 16 1013.6S  
PANAMA CITY BEAC 83 86 150/ 5/ 7 N/A  
TOWER C 82 1015.2S  
28.5N 84.5W 200/ 10/ 12 1015.1F 4/ 7 3/ 7  
 

 
FLZ011-016>038-118-127-128-134-139-239-160700-  
NORTH FLORIDA  
 
CITY SKY/WX TMP DP RH WIND PRES REMARKS
 
MARIANNA CLEAR 78 73 84 S3 29.97S  
TALLAHASSEE CLEAR 79 74 84 CALM 29.98F  
LIVE OAK CLEAR 75 75 100 CALM 30.00S  
CROSS CITY CLEAR 75 73 94 CALM 30.00S  
LAKE CITY CLEAR 72 70 94 CALM 30.01S  
GAINESVILLE CLEAR 72 72 100 CALM 30.03S  
WILLISTON PTCLDY N/A N/A N/A CALM 30.00S  
PALATKA MOCLDY 73 73 100 CALM 30.01S  
MAYPORT NAS PTCLDY 84 75 74 SE6 30.01S  
JACKSONVILLE PTCLDY 76 73 91 NE3 30.00S  
JAX NAS CLEAR 82 75 79 S6 30.01S  
JAX CECIL CLEAR 73 73 100 CALM 30.01S  
FERNANDINA BEA CLOUDY 81 75 83 SE7 30.02S  
ST AUGUSTINE PTCLDY 79 74 84 CALM 30.01F  
PALM COAST PTCLDY 74 73 94 W3 30.01F  
 
STATION/POSITION SKY/WX TEMP WIND PRES WAVE SWELL
 
AIR SEA DIR/SP/G HT/PER HT/PER  
(F) (DEG/KT/KT) (MB) (FT/S) (FT/S)  
SHELL POINT NOT AVBL  
KEATON BEACH NOT AVBL  
CEDAR KEY NOT AVBL  
FERNANDINA 85 87 140/ 3/ 5 N/A  
30.7N 81.3W 82 84 N/A 2/ 7  
MAYPORT 82 86 150/ 2/ 5 N/A  
31.4N 80.9W 82 83 160/ 10/ 12 1016.5F 2/ 6 2/ 6  
ST AUGUSTINE 82 86 110/ 8/ 8 1015.7F  
 

 
FLZ040-043>046-052-053-057-058-063-144-160700-  
INTERIOR CENTRAL FLORIDA  
 
CITY SKY/WX TMP DP RH WIND PRES REMARKS
 
OCALA PTCLDY 74 74 100 CALM 30.01S  
LEESBURG PTCLDY 76 74 93 CALM 30.01F  
SANFORD PTCLDY 77 73 87 S3 30.00S  
ORLANDO EXEC PTCLDY 77 73 87 CALM 30.00F  
ORLANDO INTL MOCLDY 77 73 87 CALM 30.00F  
KISSIMMEE PTCLDY 76 74 93 W3 30.01F  
WINTER HAVEN MOCLDY 77 73 87 CALM 30.01F  
LAKELAND INTL MOCLDY 75 74 97 CALM 30.01F  
BARTOW MOCLDY 73 73 100 CALM 30.01S  
SEBRING PTCLDY 77 73 89 CALM 30.01S  
OKEECHOBEE PTCLDY 73 73 100 CALM 29.98F  
 

 
FLZ041-047-054-059-064-141-147-160700-  
EAST CENTRAL FLORIDA  
 
CITY SKY/WX TMP DP RH WIND PRES REMARKS
 
DAYTONA BEACH NOT AVBL  
DELAND PTCLDY 74 72 93 CALM 30.01S  
JFK SPACE CTR PTCLDY 75 73 95 CALM 29.97F  
CAPE CANAVERAL MOCLDY 76 74 93 N5 29.96F  
PATRICK AFB PTCLDY 80 75 86 N5 29.96F  
MELBOURNE PTCLDY 75 73 93 W5 29.98F  
VERO BEACH MOCLDY 77 73 87 SW3 29.99F  
FT PIERCE MOCLDY 75 72 90 CALM 29.99F  
STUART MOCLDY 77 73 88 CALM 29.99S  
 
STATION/POSITION SKY/WX TEMP WIND PRES WAVE SWELL
 
AIR SEA DIR/SP/G HT/PER HT/PER  
(F) (DEG/KT/KT) (MB) (FT/S) (FT/S)  
28.5N 80.2W 81 81 200/ 2/ 4 1015.9F  
28.9N 78.5W 81 81 160/ 4/ 6 1015.9F  
TRIDENT PIER 77 86 CALM / 1 N/A  
28.4N 80.5W 81 N/A 1/13  
27.6N 80.2W 79 N/A 1/ 7  
 

 
FLZ050-056-061-142-242-148-248-149-249-151-251-155-255-  
160-260-160700-  
WEST CENTRAL FLORIDA  
 
CITY SKY/WX TMP DP RH WIND PRES REMARKS
 
CRYSTAL RIVER PTCLDY 73 72 94 CALM 29.99F  
INVERNESS PTCLDY 73 73 100 CALM 30.00F  
BROOKSVILLE PTCLDY 75 50 41 CALM 30.00F  
CLEARWATER AIR MOCLDY 77 73 88 CALM 29.99F  
ST PETE CLEARW MOCLDY 78 75 90 SE5 29.99F  
TAMPA INTL MOCLDY 78 75 90 CALM 30.00F  
TAMPA EXEC MOCLDY 73 72 94 CALM 30.01F FOG  
PLANT CITY MOCLDY N/A N/A N/A CALM 30.02F  
MACDILL AFB MOCLDY 85 78 78 S3 29.98F HX 97  
PETER O KNIGHT MOCLDY 77 72 83 CALM 30.00F  
ST PETERSBURG MOCLDY 82 75 79 S8 29.97F  
SARASOTA NOT AVBL  
VENICE PTCLDY 79 79 100 E9 30.00S  
 
STATION/POSITION SKY/WX TEMP WIND PRES WAVE SWELL
 
AIR SEA DIR/SP/G HT/PER HT/PER  
(F) (DEG/KT/KT) (MB) (FT/S) (FT/S)  
27.3N 84.3W 83 85 N/A 6/ 8  
CLEARWATER BEACH 82 89 120/ 3/ 4 N/A  
MIDDLE TAMPA BAY 80 150/ 8/ 8 N/A  
VENICE 78 85 60/ 5/ 6 1015.5F  
 

 
FLZ066-069-070-075>078-162-262-165-265-160700-  
SOUTHWEST FLORIDA AND KEYS  
 
CITY SKY/WX TMP DP RH WIND PRES REMARKS
 
PUNTA GORDA MOCLDY 77 74 90 CALM 30.01S  
FT MYERS CLOUDY 77 72 84 SE3 29.98F  
SOUTHWEST INTL CLOUDY 77 74 90 CALM 29.99F  
NAPLES CLOUDY 78 76 93 E3 29.98F  
IMMOKALEE CLOUDY 77 77 100 E5 29.98F  
MARATHON CLOUDY 84 74 71 E12 29.96R  
KEY WEST NAS CLOUDY 87 81 82 E12 29.97 HX 104  
KEY WEST INTL CLOUDY 84 77 79 E8 29.97F  
 
STATION/POSITION SKY/WX TEMP WIND PRES WAVE SWELL
 
AIR SEA DIR/SP/G HT/PER HT/PER  
(F) (DEG/KT/KT) (MB) (FT/S) (FT/S)  
NAPLES NOT AVBL  
DRY TORTUGAS NOT AVBL  
SAND KEY 83 80/ 13/ 15 1015.0R  
SOMBRERO KEY 1013.5R  
LONG KEY 100/ 17/ 20 1013.1F  
 

 
FLZ067-068-071>074-168-172>174-160700-  
SOUTHEAST FLORIDA  
 
CITY SKY/WX TMP DP RH WIND PRES REMARKS
 
W PALM BEACH CLOUDY 80 74 81 NW3 30.00F  
FT LAUDER-EXEC CLOUDY 82 72 71 CALM 29.98F  
FT LAUDERDALE CLOUDY 82 76 81 E3 29.98F  
POMPANO BEACH CLOUDY 81 71 71 MISG 29.99F  
PEMBROKE PINES CLOUDY 81 56 42 CALM 30.00F  
OPA LOCKA CLOUDY 81 75 82 NE3 29.99F  
MIAMI CLOUDY 82 73 74 CALM 29.99F  
WEST KENDALL CLOUDY 80 75 84 NE6 29.98F  
HOMESTEAD CLOUDY 82 72 71 E5 29.97F  
 
STATION/POSITION SKY/WX TEMP WIND PRES WAVE SWELL
 
AIR SEA DIR/SP/G HT/PER HT/PER  
(F) (DEG/KT/KT) (MB) (FT/S) (FT/S)  
VIRGINIA KEY 84 83 70/ 6/ 8 N/A  
LAKE WORTH 81 82 320/ 2/ 3 N/A  
SETTLEMENT POINT 83 230/ 3/ 4 1015.9F  
 

 
 
 
 
CLICK HERE TO GO TO PREVIOUS BULLETINS.

The Nexlab FL Page Main Text Page